Tracking 31027 objects as of 19-Jul-2025
HD Live streaming from Space Station
objects crossing your sky now

THORAD DELTA 1 DEB

Track THORAD DELTA 1 DEB now!
10-day predictions


NORAD ID: 10393
Int'l Code: 1974-089EJ
Perigee: 1,457.0 km
Apogee: 1,706.7 km
Inclination: 101.6 °
Period: 117.6 minutes
Semi major axis: 7952 km
RCS: 0.0302 m2 (small)
Launch date: November 15, 1974
Source: United States (US)
Launch site: AIR FORCE WESTERN TEST RANGE (AFWTR)

Note: This is SATELLITE DEBRIS
Your satellite tracking list
COSMOS 2251 DEB
Track 1 satellite(s)




NASA's NSSDC Master Catalog

Two Line Element Set (TLE):
1 10393U 74089EJ  25199.64162032  .00000056  00000-0  84869-3 0  9993
2 10393 101.5802 151.7805 0156958 183.8004 349.0910 12.24099487269447
Source of the keplerian elements: AFSPC